This is the latest recevied weather packets stored in our database for station/object OK1ZDJ-13. If no packets are shown the sender has not sent any weather packets the latest 10 day(s).
| Time | Temp. | Humidity | Pressure | Rain* | Wind** | Luminosity | Snow |
|---|---|---|---|---|---|---|---|
| 1777755470 | 10.56° C | 62% | 1019.9 hPa | - | - | - | - |
| 1777754871 | 10.56° C | 61% | 1020 hPa | - | - | - | - |
| 1777754270 | 11.11° C | 60% | 1020 hPa | - | - | - | - |
| 1777753670 | 11.11° C | 59% | 1020.1 hPa | - | - | - | - |
| 1777753070 | 11.67° C | 58% | 1020.1 hPa | - | - | - | - |
| 1777751270 | 13.33° C | 53% | 1020.1 hPa | - | - | - | - |
| 1777750670 | 13.89° C | 52% | 1020.1 hPa | - | - | - | - |
| 1777750070 | 14.44° C | 49% | 1020.1 hPa | - | - | - | - |
| 1777749470 | 14.44° C | 49% | 1020.1 hPa | - | - | - | - |
| 1777748871 | 15° C | 48% | 1020.2 hPa | - | - | - | - |
| 1777747671 | 16.11° C | 45% | 1020.1 hPa | - | - | - | - |
| 1777747070 | 16.67° C | 43% | 1020 hPa | - | - | - | - |
| 1777746470 | 17.78° C | 42% | 1020 hPa | - | - | - | - |
| 1777745870 | 18.89° C | 41% | 1019.8 hPa | - | - | - | - |
| 1777745270 | 20.56° C | 36% | 1019.8 hPa | - | - | - | - |
| 1777744671 | 22.22° C | 32% | 1019.9 hPa | - | - | - | - |
| 1777744070 | 23.89° C | 31% | 1020 hPa | - | - | - | - |
| 1777743470 | 24.44° C | 28% | 1020 hPa | - | - | - | - |
| 1777742870 | 25° C | 24% | 1020 hPa | - | - | - | - |
| 1777742270 | 25.56° C | 19% | 1020 hPa | - | - | - | - |
| 1777741670 | 26.67° C | 19% | 1020 hPa | - | - | - | - |
| 1777741070 | 26.67° C | 18% | 1020 hPa | - | - | - | - |
| 1777740470 | 27.22° C | 20% | 1020.2 hPa | - | - | - | - |
| 1777739870 | 27.78° C | 20% | 1020.3 hPa | - | - | - | - |
| 1777739270 | 27.78° C | 17% | 1020.5 hPa | - | - | - | - |
* Rain since midnight (hover to see other rain measurements)
** Current wind speed in m/s (hover to see current wind gust speed)